Location: Unspecified
(43.6222°N, 0.0000°E)
Time: 01:13:11
(UTC+00:00)

NOAA-20 - Visible Passes

Search period start: 04 April 2026 00:00
Search period end: 14 April 2026 00:00
Orbit: 826 x 828 km, 98.8° (Epoch: 29 March)

Date Brightness Start Highest point End Pass type
(mag) Time Alt. Az. Time Alt. Az. Time Alt. Az.
4 Apr ? 00:23:57 10° ENE 00:24:04 10° ENE 00:24:04 10° ENE visible
4 Apr ? 02:02:04 10° NNE 02:05:34 42° N 02:05:34 42° N visible
4 Apr ? 03:44:37 10° NNW 03:46:49 13° NW 03:47:05 13° WNW visible
5 Apr ? 01:43:18 10° NNE 01:46:40 39° NNE 01:46:40 39° NNE visible
5 Apr ? 03:24:49 10° NNW 03:28:10 18° WNW 03:28:10 18° WNW visible
6 Apr ? 01:24:37 10° NNE 01:27:45 32° NE 01:27:45 32° NE visible
6 Apr ? 03:05:28 10° N 03:09:15 24° NW 03:09:15 24° NW visible
7 Apr ? 01:06:06 10° NNE 01:08:50 25° NE 01:08:50 25° NE visible
7 Apr ? 02:46:19 10° N 02:50:21 33° NW 02:50:21 33° NW visible
8 Apr ? 00:47:46 10° NE 00:49:55 19° ENE 00:49:55 19° ENE visible
8 Apr ? 02:27:17 10° N 02:31:26 43° NW 02:31:26 43° NW visible
9 Apr ? 00:29:49 10° NE 00:31:01 13° ENE 00:31:01 13° ENE visible
9 Apr ? 02:08:22 10° N 02:12:31 52° N 02:12:31 52° N visible
9 Apr ? 03:51:31 10° NW 03:52:59 11° NW 03:54:01 11° WNW visible
10 Apr ? 01:49:33 10° NNE 01:53:36 52° NNE 01:53:36 52° NNE visible
10 Apr ? 03:31:22 10° NNW 03:34:30 16° WNW 03:35:06 16° WNW visible
11 Apr ? 01:30:51 10° NNE 01:34:41 42° NE 01:34:41 42° NE visible
11 Apr ? 03:11:55 10° NNW 03:15:58 22° WNW 03:16:11 22° WNW visible
12 Apr ? 01:12:16 10° NNE 01:15:46 32° ENE 01:15:46 32° ENE visible
12 Apr ? 02:52:41 10° N 02:57:16 31° WNW 02:57:16 31° WNW visible
13 Apr ? 00:53:52 10° NE 00:56:51 23° ENE 00:56:51 23° ENE visible
13 Apr ? 02:33:38 10° N 02:38:21 43° WNW 02:38:21 43° WNW visible
